DLH726 EDDM-ZSPD

Flight info

Callsign DLH726
Flight time N/A
Altitude 35000
Route KIRDI3W KIRDI DCT BUWOQ DCT OBFEZ DCT STEIN DCT TEGRI DCT DINRO/N0492F370 DCT UDROS DCT BAMUP DCT ROLIN DCT TAGAR DCT BT DCT BARAD M747 SUBUT T916 LEYLA N644 NIJAT L88 METKA B476 TIMGA A480 OTBOR/K0896F370 N147 EGZIG/K0898F390 N147 ELAHA Z621 ARBOL M610 RULAD/K0895S1190 A343 POSOT B215 FKG W188 LIKMI W270 DKO/K0898S1250 W69 HUR B339 SOTMU/K0900S1220 W98 ELKUR W40 DOXAB/K0904S1250 W40 YQG/K0907S1220 W142 DALIM/K0906S1250 A593 DPX A470 DALNU W166 ZJ W167 SASAN SAS92A
Aircraft A359/H-SDE2E3GHIJ3J4J5LM1ORWXY/LB1D1

Departure

Time N/A
Airport Munich Airport (EDDM)

Arrival

Time 2026-05-04 06:03
Airport Shanghai Pudong International Airport (ZSPD)
Time Latitude Longitude Altitude Speed Heading
2026-05-04 05:15 34.52320 117.91087 41078 ft 506 kts 170°
2026-05-04 05:15 34.48938 117.92298 41078 ft 506 kts 170°
2026-05-04 05:16 34.42187 117.94712 41075 ft 506 kts 170°
2026-05-04 05:16 34.35472 117.97109 41075 ft 506 kts 170°
2026-05-04 05:17 34.28729 117.99512 41070 ft 506 kts 170°
2026-05-04 05:17 34.21975 118.01952 41077 ft 505 kts 169°
2026-05-04 05:18 34.15241 118.04411 41074 ft 505 kts 169°
2026-05-04 05:18 34.08502 118.06866 41075 ft 505 kts 170°
2026-05-04 05:19 34.01817 118.09295 41073 ft 505 kts 170°
2026-05-04 05:19 33.95090 118.11745 41074 ft 505 kts 170°
2026-05-04 05:20 33.88382 118.14185 41074 ft 505 kts 170°
2026-05-04 05:20 33.81708 118.16960 41047 ft 514 kts 161°
2026-05-04 05:21 33.75511 118.21448 41077 ft 522 kts 153°
2026-05-04 05:21 33.69510 118.26424 41078 ft 524 kts 151°
2026-05-04 05:22 33.65937 118.29441 41076 ft 524 kts 151°
2026-05-04 05:22 33.60403 118.34088 41081 ft 524 kts 152°
2026-05-04 05:23 33.54412 118.39068 41073 ft 524 kts 152°
2026-05-04 05:23 33.48406 118.44034 41081 ft 524 kts 152°
2026-05-04 05:24 33.42387 118.48998 41082 ft 524 kts 152°
2026-05-04 05:24 33.36419 118.53914 41078 ft 524 kts 152°
2026-05-04 05:25 33.30402 118.58863 41085 ft 524 kts 152°
2026-05-04 05:25 33.24392 118.63798 41082 ft 524 kts 152°
2026-05-04 05:26 33.18371 118.68749 41077 ft 525 kts 153°
2026-05-04 05:26 33.12371 118.73733 41080 ft 525 kts 153°
2026-05-04 05:28 32.88395 118.93577 41083 ft 525 kts 153°
2026-05-04 05:29 32.82379 118.98542 41084 ft 525 kts 153°
2026-05-04 05:29 32.76387 119.03519 41088 ft 525 kts 153°
2026-05-04 05:31 32.52429 119.23345 41088 ft 526 kts 153°
2026-05-04 05:32 32.46417 119.28297 41088 ft 526 kts 154°
2026-05-04 05:33 32.37400 119.35709 41087 ft 526 kts 154°
2026-05-04 05:33 32.31387 119.40642 41089 ft 526 kts 154°
2026-05-04 05:34 32.25362 119.45575 41090 ft 527 kts 154°
2026-05-04 05:34 32.19366 119.50478 41096 ft 527 kts 154°
2026-05-04 05:35 32.13339 119.55398 41088 ft 526 kts 154°
2026-05-04 05:35 32.07304 119.60316 40999 ft 527 kts 154°
2026-05-04 05:35 32.04300 119.62762 40767 ft 526 kts 154°
2026-05-04 05:36 32.01287 119.65213 40480 ft 526 kts 155°
2026-05-04 05:36 31.98284 119.67652 40199 ft 526 kts 155°
2026-05-04 05:36 31.95338 119.70240 39528 ft 536 kts 147°
2026-05-04 05:36 31.92790 119.73544 38800 ft 555 kts 134°
2026-05-04 05:37 31.90543 119.77273 37945 ft 560 kts 132°
2026-05-04 05:37 31.88356 119.81073 37213 ft 559 kts 132°
2026-05-04 05:37 31.86185 119.84863 36498 ft 558 kts 132°
2026-05-04 05:38 31.81850 119.92408 35051 ft 555 kts 133°
2026-05-04 05:38 31.79689 119.96157 34333 ft 553 kts 133°
2026-05-04 05:38 31.77530 119.99900 33501 ft 549 kts 133°
2026-05-04 05:38 31.75404 120.03587 32454 ft 540 kts 133°
2026-05-04 05:39 31.73319 120.07199 31558 ft 530 kts 133°
2026-05-04 05:39 31.69146 120.14389 29702 ft 534 kts 132°
2026-05-04 05:39 31.67060 120.17981 28952 ft 531 kts 131°
2026-05-04 05:40 31.62966 120.25034 27595 ft 521 kts 131°
2026-05-04 05:40 31.60929 120.28536 26953 ft 517 kts 130°
2026-05-04 05:40 31.59041 120.32130 26320 ft 520 kts 121°
2026-05-04 05:41 31.57681 120.36062 25689 ft 520 kts 114°
2026-05-04 05:41 31.56500 120.40074 25052 ft 517 kts 112°
2026-05-04 05:41 31.55344 120.44060 24433 ft 514 kts 112°
2026-05-04 05:41 31.54189 120.48017 23808 ft 511 kts 112°
2026-05-04 05:42 31.53033 120.51954 23088 ft 508 kts 111°
2026-05-04 05:42 31.51901 120.55791 22448 ft 501 kts 111°
2026-05-04 05:42 31.50769 120.59622 21838 ft 495 kts 111°
2026-05-04 05:42 31.49645 120.63414 21229 ft 489 kts 111°
2026-05-04 05:43 31.48534 120.67155 20611 ft 482 kts 110°
2026-05-04 05:43 31.47438 120.70842 19992 ft 476 kts 110°
2026-05-04 05:43 31.46354 120.74481 19385 ft 471 kts 110°
2026-05-04 05:45 31.39356 120.97221 15585 ft 423 kts 109°
2026-05-04 05:45 31.38366 121.00481 15412 ft 427 kts 109°
2026-05-04 05:47 31.31812 121.22159 13379 ft 342 kts 109°
2026-05-04 05:47 31.31049 121.24701 13034 ft 329 kts 109°
2026-05-04 05:47 31.30296 121.27201 12710 ft 324 kts 109°
2026-05-04 05:48 31.29552 121.29668 12379 ft 321 kts 109°
2026-05-04 05:48 31.28811 121.32123 12120 ft 318 kts 109°
2026-05-04 05:48 31.28081 121.34558 11787 ft 315 kts 108°
2026-05-04 05:48 31.27355 121.36966 11486 ft 312 kts 109°
2026-05-04 05:49 31.26629 121.39348 11181 ft 311 kts 109°
2026-05-04 05:49 31.25904 121.41724 10785 ft 310 kts 109°
2026-05-04 05:49 31.25191 121.44057 10596 ft 300 kts 109°
2026-05-04 05:49 31.24501 121.46324 10378 ft 291 kts 108°
2026-05-04 05:51 31.25396 121.60816 8251 ft 246 kts 34°
2026-05-04 05:51 31.26890 121.61616 8002 ft 231 kts
2026-05-04 05:52 31.28444 121.61541 7788 ft 222 kts 343°
2026-05-04 05:52 31.29915 121.61032 7563 ft 219 kts 339°
2026-05-04 05:52 31.31355 121.60463 7354 ft 218 kts 339°
2026-05-04 05:52 31.32788 121.59898 7104 ft 215 kts 339°
2026-05-04 05:53 31.34206 121.59345 6765 ft 216 kts 339°
2026-05-04 05:54 31.41295 121.63567 4341 ft 214 kts 77°
2026-05-04 05:55 31.41588 121.65257 4101 ft 210 kts 77°
2026-05-04 05:55 31.41682 121.66936 3820 ft 205 kts 104°
2026-05-04 05:55 31.40927 121.68264 3602 ft 196 kts 142°
2026-05-04 05:55 31.39771 121.69069 3351 ft 191 kts 161°
2026-05-04 05:56 31.38527 121.69569 3091 ft 187 kts 164°
2026-05-04 05:56 31.37314 121.70035 2998 ft 180 kts 164°
2026-05-04 05:56 31.36121 121.70490 2998 ft 181 kts 164°
2026-05-04 05:56 31.34929 121.70944 3005 ft 181 kts 164°
2026-05-04 05:57 31.33732 121.71400 2997 ft 180 kts 164°
2026-05-04 05:57 31.32541 121.71854 2998 ft 180 kts 164°
2026-05-04 05:57 31.31347 121.72309 2998 ft 180 kts 164°
2026-05-04 05:57 31.30158 121.72762 3002 ft 176 kts 164°
2026-05-04 05:58 31.29014 121.73197 2855 ft 174 kts 164°
2026-05-04 05:58 31.27871 121.73630 2594 ft 171 kts 164°
2026-05-04 05:58 31.26756 121.74047 2334 ft 169 kts 165°
2026-05-04 05:58 31.25663 121.74460 2138 ft 161 kts 164°
2026-05-04 05:59 31.24619 121.74867 1908 ft 156 kts 164°
2026-05-04 05:59 31.23605 121.75264 1687 ft 151 kts 164°
2026-05-04 05:59 31.22617 121.75622 1506 ft 146 kts 165°
2026-05-04 05:59 31.21653 121.75974 1305 ft 145 kts 166°
2026-05-04 06:00 31.20704 121.76331 1138 ft 143 kts 164°
2026-05-04 06:00 31.19766 121.76733 919 ft 142 kts 166°
2026-05-04 06:00 31.18825 121.77083 746 ft 143 kts 166°
2026-05-04 06:00 31.17868 121.77429 550 ft 145 kts 162°
2026-05-04 06:01 31.16911 121.77801 367 ft 144 kts 160°
2026-05-04 06:01 31.15953 121.78159 174 ft 144 kts 161°
2026-05-04 06:03 31.13607 121.79300 29 ft 14 kts 89°
2026-05-04 06:03 31.13634 121.79416 28 ft 16 kts 73°
2026-05-04 06:05 31.14184 121.79660 29 ft 20 kts 341°
2026-05-04 06:05 31.14466 121.79552 28 ft 15 kts 342°
2026-05-04 06:05 31.14553 121.79562 29 ft 13 kts 46°
2026-05-04 06:06 31.14589 121.79664 29 ft 14 kts 65°
2026-05-04 06:06 31.14648 121.79737 29 ft 8 kts 55°
2026-05-04 06:06 31.14667 121.79797 29 ft 5 kts 73°
2026-05-04 06:06 31.14674 121.79823 29 ft 1 kts 73°
2026-05-04 06:07 31.14676 121.79828 29 ft 0 kts 73°